1 Minute Report
Date Time Wind Direction Wind Speed Wind Gust Wind Variable Altimeter Temperature Dewpoint Relative Humidity Visibility Ceiling Precip Present Weather Density Alt Wind Chill Heat Index
05/19/19 18:28 EDT 180 14 20 N/A 29.86 87(F), 31(C) 65(F), 18(C) 47% 10SM CLR N/A N/A 2300 N/A 88 F 3052
05/19/19 18:27 EDT 190 15 20 N/A 29.86 87(F), 31(C) 65(F), 18(C) 47% 10SM CLR N/A N/A 2300 N/A 88 F 3051
05/19/19 18:26 EDT 180 12 20 N/A 29.86 87(F), 31(C) 65(F), 18(C) 47% 10SM CLR N/A N/A 2300 N/A 88 F 3050
05/19/19 18:25 EDT 180 09 20 N/A 29.86 87(F), 31(C) 65(F), 18(C) 47% 10SM CLR N/A N/A 2300 N/A 88 F 3049
05/19/19 18:24 EDT 180 10 20 N/A 29.86 87(F), 31(C) 65(F), 18(C) 47% 10SM CLR N/A N/A 2300 N/A 88 F 3048
05/19/19 18:23 EDT 180 11 20 N/A 29.86 88(F), 31(C) 65(F), 18(C) 46% 10SM CLR N/A N/A 2300 N/A 89 F 3047
05/19/19 18:22 EDT 180 11 20 N/A 29.86 88(F), 31(C) 65(F), 18(C) 46% 10SM CLR N/A N/A 2300 N/A 89 F 3046
05/19/19 18:21 EDT 190 12 20 N/A 29.86 88(F), 31(C) 65(F), 18(C) 46% 10SM CLR N/A N/A 2300 N/A 89 F 3045
05/19/19 18:20 EDT 200 15 20 N/A 29.86 87(F), 31(C) 65(F), 18(C) 47% 10SM CLR N/A N/A 2300 N/A 88 F 3044
05/19/19 18:19 EDT 190 16 20 N/A 29.86 87(F), 31(C) 66(F), 19(C) 49% 10SM CLR N/A N/A 2300 N/A 89 F 3043
05/19/19 18:18 EDT 190 12 18 N/A 29.86 87(F), 31(C) 66(F), 19(C) 49% 10SM CLR N/A N/A 2300 N/A 89 F 3042
05/19/19 18:17 EDT 190 09 N/A N/A 29.86 88(F), 31(C) 66(F), 19(C) 47% 10SM CLR N/A N/A 2300 N/A 90 F 3041
05/19/19 18:16 EDT 190 10 21 N/A 29.86 88(F), 31(C) 66(F), 19(C) 47% 10SM CLR N/A N/A 2300 N/A 90 F 3040
05/19/19 18:15 EDT 180 11 21 N/A 29.87 88(F), 31(C) 66(F), 19(C) 47% 10SM CLR N/A N/A 2300 N/A 90 F 3039
05/19/19 18:14 EDT 190 11 21 N/A 29.87 87(F), 31(C) 66(F), 19(C) 49% 10SM CLR N/A N/A 2300 N/A 89 F 3038
05/19/19 18:13 EDT 190 11 21 N/A 29.87 87(F), 31(C) 66(F), 19(C) 49% 10SM CLR N/A N/A 2300 N/A 89 F 3037
05/19/19 18:12 EDT 180 09 21 N/A 29.87 87(F), 31(C) 66(F), 19(C) 49% 10SM CLR N/A N/A 2300 N/A 89 F 3036
05/19/19 18:11 EDT 190 09 21 N/A 29.87 88(F), 31(C) 66(F), 19(C) 47% 10SM CLR N/A N/A 2300 N/A 90 F 3035
05/19/19 18:10 EDT 190 10 21 N/A 29.87 88(F), 31(C) 65(F), 18(C) 46% 10SM CLR N/A N/A 2300 N/A 89 F 3034
05/19/19 18:09 EDT 190 14 21 N/A 29.87 88(F), 31(C) 65(F), 18(C) 46% 10SM CLR N/A N/A 2300 N/A 89 F 3033
05/19/19 18:08 EDT 190 16 21 N/A 29.87 88(F), 31(C) 66(F), 19(C) 47% 10SM CLR N/A N/A 2300 N/A 90 F 3032
05/19/19 18:07 EDT 190 17 21 N/A 29.87 88(F), 31(C) 66(F), 19(C) 47% 10SM CLR N/A N/A 2300 N/A 90 F 3031
05/19/19 18:06 EDT 180 16 21 N/A 29.87 88(F), 31(C) 66(F), 19(C) 47% 10SM CLR N/A N/A 2300 N/A 90 F 3030
05/19/19 18:05 EDT 170 13 20 N/A 29.87 88(F), 31(C) 67(F), 19(C) 49% 10SM CLR N/A N/A 2300 N/A 90 F 3029
05/19/19 18:04 EDT 180 09 N/A N/A 29.87 88(F), 31(C) 67(F), 19(C) 49% 10SM CLR N/A N/A 2300 N/A 90 F 3028
05/19/19 18:03 EDT 180 09 N/A N/A 29.87 88(F), 31(C) 67(F), 19(C) 49% 10SM CLR N/A N/A 2300 N/A 90 F 3027
05/19/19 18:02 EDT 190 10 N/A N/A 29.87 88(F), 31(C) 67(F), 19(C) 49% 10SM CLR N/A N/A 2300 N/A 90 F 3026
05/19/19 18:01 EDT 190 10 N/A N/A 29.87 88(F), 31(C) 66(F), 19(C) 47% 10SM CLR N/A N/A 2300 N/A 90 F 3025
05/19/19 18:00 EDT 180 10 N/A N/A 29.87 88(F), 31(C) 66(F), 19(C) 47% 10SM CLR N/A N/A 2300 N/A 90 F 3024
05/19/19 17:59 EDT 190 09 N/A N/A 29.87 88(F), 31(C) 66(F), 19(C) 47% 10SM CLR N/A N/A 2300 N/A 90 F 3023
05/19/19 17:58 EDT 190 08 N/A N/A 29.88 88(F), 31(C) 65(F), 18(C) 46% 10SM CLR N/A N/A 2300 N/A 89 F 3022
05/19/19 17:57 EDT 190 09 N/A N/A 29.88 88(F), 31(C) 65(F), 18(C) 46% 10SM CLR N/A N/A 2300 N/A 89 F 3021
05/19/19 17:56 EDT 180 10 N/A N/A 29.88 88(F), 31(C) 65(F), 18(C) 46% 10SM CLR N/A N/A 2300 N/A 89 F 3020
05/19/19 17:55 EDT 180 10 21 N/A 29.88 88(F), 31(C) 64(F), 18(C) 44% 10SM CLR N/A N/A 2300 N/A 89 F 3019
05/19/19 17:54 EDT 190 12 21 N/A 29.88 88(F), 31(C) 64(F), 18(C) 44% 10SM CLR N/A N/A 2300 N/A 89 F 3018
05/19/19 17:53 EDT 200 13 23 N/A 29.88 88(F), 31(C) 64(F), 18(C) 44% 10SM FEW065 SCT180 BKN250 N/A N/A 2300 N/A 89 F 3017
05/19/19 17:52 EDT 200 14 24 N/A 29.88 88(F), 31(C) 64(F), 18(C) 44% 10SM FEW065 SCT180 BKN250 N/A N/A 2300 N/A 89 F 3016
05/19/19 17:51 EDT 210 14 26 N/A 29.88 88(F), 31(C) 64(F), 18(C) 44% 10SM FEW065 SCT180 BKN250 N/A N/A 2300 N/A 89 F 3015
05/19/19 17:50 EDT 210 14 26 N/A 29.88 88(F), 31(C) 64(F), 18(C) 44% 10SM CLR N/A N/A 2300 N/A 89 F 3014
05/19/19 17:49 EDT 200 15 26 N/A 29.88 88(F), 31(C) 64(F), 18(C) 44% 10SM CLR N/A N/A 2300 N/A 89 F 3013
05/19/19 17:48 EDT 190 17 26 N/A 29.88 88(F), 31(C) 63(F), 17(C) 42% 10SM CLR N/A N/A 2300 N/A 88 F 3012
05/19/19 17:47 EDT 200 16 26 N/A 29.88 88(F), 31(C) 63(F), 17(C) 42% 10SM CLR N/A N/A 2300 N/A 88 F 3011
05/19/19 17:46 EDT 190 14 26 N/A 29.88 88(F), 31(C) 63(F), 17(C) 42% 10SM CLR N/A N/A 2300 N/A 88 F 3010
05/19/19 17:45 EDT 190 17 26 N/A 29.88 88(F), 31(C) 63(F), 17(C) 42% 10SM CLR N/A N/A 2300 N/A 88 F 3009
05/19/19 17:44 EDT 180 19 26 N/A 29.88 88(F), 31(C) 63(F), 17(C) 42% 10SM CLR N/A N/A 2300 N/A 88 F 3008
05/19/19 17:43 EDT 180 20 26 N/A 29.88 88(F), 31(C) 64(F), 18(C) 44% 10SM CLR N/A N/A 2300 N/A 89 F 3007
05/19/19 17:42 EDT 200 18 26 N/A 29.88 88(F), 31(C) 64(F), 18(C) 44% 10SM CLR N/A N/A 2300 N/A 89 F 3006
05/19/19 17:41 EDT 200 17 25 N/A 29.88 88(F), 31(C) 64(F), 18(C) 44% 10SM CLR N/A N/A 2300 N/A 89 F 3005
05/19/19 17:40 EDT 190 17 25 N/A 29.88 88(F), 31(C) 64(F), 18(C) 44% 10SM CLR N/A N/A 2300 N/A 89 F 3004
05/19/19 17:39 EDT 190 16 22 N/A 29.88 88(F), 31(C) 64(F), 18(C) 44% 10SM CLR N/A N/A 2300 N/A 89 F 3003
05/19/19 17:38 EDT 190 18 22 N/A 29.88 88(F), 31(C) 64(F), 18(C) 44% 10SM CLR N/A N/A 2300 N/A 89 F 3002
05/19/19 17:37 EDT 200 17 22 N/A 29.88 88(F), 31(C) 64(F), 18(C) 44% 10SM CLR N/A N/A 2300 N/A 89 F 3001
05/19/19 17:36 EDT 200 14 22 N/A 29.88 88(F), 31(C) 64(F), 18(C) 44% 10SM CLR N/A N/A 2300 N/A 89 F 3000
05/19/19 17:35 EDT 190 13 23 N/A 29.88 88(F), 31(C) 64(F), 18(C) 44% 10SM CLR N/A N/A 2300 N/A 89 F 2999
05/19/19 17:34 EDT 190 14 25 N/A 29.88 89(F), 32(C) 64(F), 18(C) 43% 10SM CLR N/A N/A 2400 N/A 90 F 2998
05/19/19 17:33 EDT 190 15 25 N/A 29.88 89(F), 32(C) 65(F), 18(C) 44% 10SM CLR N/A N/A 2400 N/A 90 F 2997
05/19/19 17:32 EDT 190 17 25 N/A 29.88 89(F), 32(C) 65(F), 18(C) 44% 10SM CLR N/A N/A 2400 N/A 90 F 2996
05/19/19 17:31 EDT 190 16 25 N/A 29.88 89(F), 32(C) 65(F), 18(C) 44% 10SM CLR N/A N/A 2400 N/A 90 F 2995
05/19/19 17:30 EDT 190 13 25 N/A 29.88 88(F), 31(C) 65(F), 18(C) 46% 10SM CLR N/A N/A 2300 N/A 89 F 2994
05/19/19 17:29 EDT 190 12 25 N/A 29.88 88(F), 31(C) 65(F), 18(C) 46% 10SM CLR N/A N/A 2300 N/A 89 F 2993
05/19/19 17:28 EDT 190 13 25 N/A 29.88 88(F), 31(C) 65(F), 18(C) 46% 10SM CLR N/A N/A 2300 N/A 89 F 2992
05/19/19 17:27 EDT 200 16 25 N/A 29.88 88(F), 31(C) 65(F), 18(C) 46% 10SM FEW075 N/A N/A 2300 N/A 89 F 2991
05/19/19 17:26 EDT 200 19 25 N/A 29.88 88(F), 31(C) 65(F), 18(C) 46% 10SM FEW075 N/A N/A 2300 N/A 89 F 2990
05/19/19 17:25 EDT 190 16 25 N/A 29.88 88(F), 31(C) 65(F), 18(C) 46% 10SM FEW075 N/A N/A 2300 N/A 89 F 2989
05/19/19 17:24 EDT 190 13 24 N/A 29.88 88(F), 31(C) 65(F), 18(C) 46% 10SM FEW075 N/A N/A 2300 N/A 89 F 2988
05/19/19 17:23 EDT 190 14 24 N/A 29.88 88(F), 31(C) 65(F), 18(C) 46% 10SM FEW075 N/A N/A 2300 N/A 89 F 2987
05/19/19 17:22 EDT 200 16 24 N/A 29.88 88(F), 31(C) 65(F), 18(C) 46% 10SM FEW075 N/A N/A 2300 N/A 89 F 2986
05/19/19 17:21 EDT 200 18 24 N/A 29.88 88(F), 31(C) 65(F), 18(C) 46% 10SM FEW075 N/A N/A 2300 N/A 89 F 2985
05/19/19 17:20 EDT 190 20 24 N/A 29.88 88(F), 31(C) 66(F), 19(C) 47% 10SM FEW075 N/A N/A 2300 N/A 90 F 2984
05/19/19 17:19 EDT 190 18 24 N/A 29.88 87(F), 31(C) 66(F), 19(C) 49% 10SM FEW075 N/A N/A 2200 N/A 89 F 2983
05/19/19 17:18 EDT 190 14 21 N/A 29.88 87(F), 31(C) 66(F), 19(C) 49% 10SM FEW075 N/A N/A 2200 N/A 89 F 2982
05/19/19 17:17 EDT 180 12 21 N/A 29.88 87(F), 31(C) 66(F), 19(C) 49% 10SM CLR N/A N/A 2200 N/A 89 F 2981
05/19/19 17:16 EDT 180 12 21 N/A 29.88 87(F), 31(C) 66(F), 19(C) 49% 10SM CLR N/A N/A 2200 N/A 89 F 2980
05/19/19 17:15 EDT 180 13 21 N/A 29.88 88(F), 31(C) 66(F), 19(C) 47% 10SM CLR N/A N/A 2300 N/A 90 F 2979
05/19/19 17:14 EDT 180 14 21 N/A 29.88 88(F), 31(C) 66(F), 19(C) 47% 10SM CLR N/A N/A 2300 N/A 90 F 2978
05/19/19 17:13 EDT 180 14 21 N/A 29.88 88(F), 31(C) 66(F), 19(C) 47% 10SM CLR N/A N/A 2300 N/A 90 F 2977
05/19/19 17:12 EDT 180 13 21 N/A 29.88 89(F), 32(C) 67(F), 19(C) 47% 10SM CLR N/A N/A 2400 N/A 91 F 2976
05/19/19 17:11 EDT 180 14 21 N/A 29.88 89(F), 32(C) 67(F), 19(C) 47% 10SM CLR N/A N/A 2400 N/A 91 F 2975
05/19/19 17:10 EDT 180 13 21 N/A 29.88 89(F), 32(C) 67(F), 19(C) 47% 10SM CLR N/A N/A 2400 N/A 91 F 2974
05/19/19 17:09 EDT 180 11 22 N/A 29.88 89(F), 32(C) 66(F), 19(C) 46% 10SM CLR N/A N/A 2400 N/A 91 F 2973
05/19/19 17:08 EDT 190 11 25 N/A 29.88 89(F), 32(C) 66(F), 19(C) 46% 10SM CLR N/A N/A 2400 N/A 91 F 2972
05/19/19 17:07 EDT 190 12 25 N/A 29.89 89(F), 32(C) 66(F), 19(C) 46% 10SM CLR N/A N/A 2400 N/A 91 F 2971
05/19/19 17:06 EDT 180 13 25 N/A 29.89 89(F), 32(C) 66(F), 19(C) 46% 10SM CLR N/A N/A 2400 N/A 91 F 2970
05/19/19 17:05 EDT 170 14 25 N/A 29.89 89(F), 32(C) 66(F), 19(C) 46% 10SM CLR N/A N/A 2400 N/A 91 F 2969
05/19/19 17:04 EDT 170 15 25 N/A 29.89 89(F), 32(C) 66(F), 19(C) 46% 10SM CLR N/A N/A 2400 N/A 91 F 2968
05/19/19 17:03 EDT 170 15 25 N/A 29.89 89(F), 32(C) 66(F), 19(C) 46% 10SM CLR N/A N/A 2400 N/A 91 F 2967
05/19/19 17:02 EDT 180 15 25 N/A 29.89 89(F), 32(C) 66(F), 19(C) 46% 10SM CLR N/A N/A 2400 N/A 91 F 2966
05/19/19 17:01 EDT 180 15 25 N/A 29.89 88(F), 31(C) 66(F), 19(C) 47% 10SM CLR N/A N/A 2300 N/A 90 F 2965
05/19/19 17:00 EDT 190 15 25 N/A 29.89 88(F), 31(C) 66(F), 19(C) 47% 10SM CLR N/A N/A 2300 N/A 90 F 2964
05/19/19 16:59 EDT 190 14 25 N/A 29.89 88(F), 31(C) 66(F), 19(C) 47% 10SM CLR N/A N/A 2300 N/A 90 F 2963
05/19/19 16:58 EDT 190 14 19 N/A 29.89 88(F), 31(C) 66(F), 19(C) 47% 10SM CLR N/A N/A 2300 N/A 90 F 2962
05/19/19 16:57 EDT 190 15 19 N/A 29.89 88(F), 31(C) 66(F), 19(C) 47% 10SM CLR N/A N/A 2300 N/A 90 F 2961
05/19/19 16:56 EDT 200 15 23 N/A 29.89 88(F), 31(C) 66(F), 19(C) 47% 10SM CLR N/A N/A 2300 N/A 90 F 2960
05/19/19 16:55 EDT 200 13 23 N/A 29.89 88(F), 31(C) 66(F), 19(C) 47% 10SM CLR N/A N/A 2300 N/A 90 F 2959
05/19/19 16:54 EDT 190 11 23 N/A 29.89 88(F), 31(C) 66(F), 19(C) 47% 10SM CLR N/A N/A 2300 N/A 90 F 2958
05/19/19 16:53 EDT 180 10 23 N/A 29.89 88(F), 31(C) 66(F), 19(C) 47% 10SM FEW050 SCT065TCU BKN150 BKN250 N/A N/A 2300 N/A 90 F 2957
05/19/19 16:52 EDT 190 12 23 N/A 29.89 88(F), 31(C) 65(F), 18(C) 46% 10SM CLR N/A N/A 2300 N/A 89 F 2956
05/19/19 16:51 EDT 190 14 23 N/A 29.89 88(F), 31(C) 65(F), 18(C) 46% 10SM CLR N/A N/A 2300 N/A 89 F 2955
05/19/19 16:50 EDT 190 15 23 N/A 29.89 88(F), 31(C) 64(F), 18(C) 44% 10SM FEW065 N/A N/A 2300 N/A 89 F 2954
05/19/19 16:49 EDT 200 16 23 N/A 29.89 88(F), 31(C) 64(F), 18(C) 44% 10SM FEW060 N/A N/A 2300 N/A 89 F 2953
05/19/19 16:48 EDT 200 17 23 N/A 29.89 88(F), 31(C) 64(F), 18(C) 44% 10SM FEW065 N/A N/A 2300 N/A 89 F 2952
05/19/19 16:47 EDT 200 17 23 N/A 29.89 88(F), 31(C) 64(F), 18(C) 44% 10SM FEW065 N/A N/A 2300 N/A 89 F 2951
05/19/19 16:46 EDT 190 15 23 N/A 29.89 88(F), 31(C) 64(F), 18(C) 44% 10SM FEW065 N/A N/A 2300 N/A 89 F 2950
05/19/19 16:45 EDT 180 15 23 N/A 29.89 88(F), 31(C) 64(F), 18(C) 44% 10SM FEW065 N/A N/A 2300 N/A 89 F 2949
05/19/19 16:44 EDT 180 14 25 N/A 29.89 88(F), 31(C) 64(F), 18(C) 44% 10SM FEW065 N/A N/A 2300 N/A 89 F 2948
05/19/19 16:43 EDT 190 15 25 N/A 29.89 88(F), 31(C) 64(F), 18(C) 44% 10SM FEW065 N/A N/A 2300 N/A 89 F 2947
05/19/19 16:42 EDT 200 17 25 N/A 29.89 88(F), 31(C) 64(F), 18(C) 44% 10SM FEW065 N/A N/A 2300 N/A 89 F 2946
05/19/19 16:41 EDT 200 15 25 N/A 29.89 88(F), 31(C) 64(F), 18(C) 44% 10SM FEW060 N/A N/A 2300 N/A 89 F 2945
05/19/19 16:40 EDT 190 12 25 N/A 29.89 88(F), 31(C) 63(F), 17(C) 42% 10SM FEW060 N/A N/A 2300 N/A 88 F 2944
05/19/19 16:39 EDT 190 14 25 N/A 29.89 88(F), 31(C) 63(F), 17(C) 42% 10SM FEW060 N/A N/A 2300 N/A 88 F 2943
05/19/19 16:38 EDT 190 16 25 N/A 29.89 88(F), 31(C) 64(F), 18(C) 44% 10SM FEW060 N/A N/A 2300 N/A 89 F 2942
05/19/19 16:37 EDT 200 18 25 N/A 29.89 89(F), 32(C) 64(F), 18(C) 43% 10SM FEW060 N/A N/A 2400 N/A 90 F 2941
05/19/19 16:36 EDT 200 19 25 N/A 29.89 89(F), 32(C) 65(F), 18(C) 44% 10SM FEW060 N/A N/A 2400 N/A 90 F 2940
05/19/19 16:35 EDT 200 19 25 N/A 29.89 89(F), 32(C) 65(F), 18(C) 44% 10SM FEW060 N/A N/A 2400 N/A 90 F 2939
05/19/19 16:34 EDT 190 16 25 N/A 29.89 88(F), 31(C) 65(F), 18(C) 46% 10SM FEW060 N/A N/A 2300 N/A 89 F 2938
05/19/19 16:33 EDT 190 13 21 N/A 29.89 88(F), 31(C) 65(F), 18(C) 46% 10SM FEW060 N/A N/A 2300 N/A 89 F 2937
05/19/19 16:32 EDT 190 12 21 N/A 29.89 88(F), 31(C) 65(F), 18(C) 46% 10SM FEW060 N/A N/A 2300 N/A 89 F 2936
05/19/19 16:31 EDT 180 13 21 N/A 29.89 88(F), 31(C) 65(F), 18(C) 46% 10SM FEW060 N/A N/A 2300 N/A 89 F 2935
05/19/19 16:30 EDT 180 14 21 N/A 29.89 88(F), 31(C) 66(F), 19(C) 47% 10SM SCT060 N/A N/A 2300 N/A 90 F 2934
05/19/19 16:29 EDT 180 13 21 N/A 29.90 89(F), 32(C) 66(F), 19(C) 46% 10SM SCT065 N/A N/A 2400 N/A 91 F 2933
05/19/19 16:28 EDT 180 12 21 N/A 29.90 89(F), 32(C) 66(F), 19(C) 46% 10SM SCT060 SCT075 N/A N/A 2400 N/A 91 F 2932